(°C)
10°
10°
11°
12°
14°
15°
(°C)
10°
11°
12°
Ю
Ю
Ю
Ю
ЮЮВ
ЮЮВ
ЮЮВ
(км/ч)
5-12
5-11
5-11
7-12
8-14
10-16
13-19
(мм)
0
0
0
0
0
0
0
(%)
5
4
4
4
3
2
2

Высота солнцестояния

/ -16.1°
sun-icon
UV 7
05:11
20:05
Убывающая луна (315°)
03:22
16:25

METAR для Barnstable (KHYA)

Время Условия Температура/
Точка росы
Ветер Видимость Погода Облачность Давление Изменить Необработанный
VFR 10°C / 5°C variable 0kt >10km - Clear 1027 - KHYA 260656Z AUTO 00000KT 10SM CLR 10/05 A3035 RMK AO2 SLP279 T01000050
VFR 11.1°C / 6.1°C variable 0kt >10km - Clear 1028 - KHYA 260556Z AUTO 00000KT 10SM CLR 11/06 A3036 RMK AO2 SLP282 T01110061 10122 20111 58001
VFR 11.7°C / 5.6°C 200º 5kt >10km - Clear 1028 - KHYA 260456Z AUTO 20005KT 10SM CLR 12/06 A3037 RMK AO2 SLP286 T01170056 401610050
VFR 11.7°C / 5.6°C 200º 5kt >10km - Clear 1028 - KHYA 260356Z AUTO 20005KT 10SM CLR 12/06 A3037 RMK AO2 SLP285 T01170056
VFR 11.7°C / 5.6°C 170º 5kt >10km - Clear 1028 - KHYA 260256Z AUTO 17005KT 10SM CLR 12/06 A3037 RMK AO2 SLP284 T01170056 50003
VFR 11.7°C / 5.6°C 200º 4kt >10km - Clear 1028 - KHYA 260156Z 20004KT 10SM CLR 12/06 A3038 RMK AO2 SLP288 T01170056
VFR 12.2°C / 6.7°C 170º 6kt >10km - Clear 1028 - KHYA 260056Z 17006KT 10SM CLR 12/07 A3037 RMK AO2 SLP284 T01220067
VFR 12.2°C / 6.1°C 180º 5kt >10km - Clear 1028 - KHYA 252356Z 18005KT 10SM CLR 12/06 A3036 RMK AO2 SLP280 T01220061 10161 20122 56008
VFR 13.3°C / 6.1°C 180º 6kt >10km - Clear 1028 - KHYA 252256Z 18006KT 10SM CLR 13/06 A3036 RMK AO2 SLP283 T01330061
VFR 13.9°C / 6.1°C variable 6kt >10km - Clear 1028 - KHYA 252156Z VRB06KT 10SM CLR 14/06 A3037 RMK AO2 SLP285 T01390061
VFR 14.4°C / 5°C 190º 7kt >10km - Clear 1028 - KHYA 252056Z 19007KT 10SM CLR 14/05 A3038 RMK AO2 SLP289 T01440050 55005
VFR 15°C / 5°C 140º 6kt >10km - Clear 1028 - KHYA 251956Z 14006KT 10SM CLR 15/05 A3038 RMK AO2 SLP288 T01500050
VFR 15°C / 3.9°C 180º 7kt >10km - Clear 1029 - KHYA 251856Z 18007KT 10SM CLR 15/04 A3039 RMK AO2 SLP292 T01500039
VFR 15°C / 3.3°C 180º 6kt >10km - Clear 1029 - KHYA 251756Z 18006KT 10SM CLR 15/03 A3040 RMK AO2 SLP294 T01500033 10161 20139 58002
VFR 15°C / 3.3°C variable 6kt >10km - Clear 1029 - KHYA 251656Z VRB06KT 10SM CLR 15/03 A3040 RMK AO2 SLP296 T01500033
VFR 15°C / 5.6°C variable 6kt >10km - Clear 1029 - KHYA 251556Z VRB06KT 10SM CLR 15/06 A3041 RMK AO2 SLP299 T01500056
VFR 15°C / 3.9°C 120º 7kt >10km - Clear 1029 - KHYA 251456Z 12007KT 10SM CLR 15/04 A3040 RMK AO2 SLP296 T01500039 50005
VFR 14.4°C / 3.3°C 130º 8kt >10km - Clear 1029 - KHYA 251356Z 13008KT 10SM CLR 14/03 A3041 RMK AO2 SLP297 T01440033
VFR 15°C / 3.9°C variable 5kt >10km - Clear 1029 - KHYA 251256Z VRB05KT 10SM CLR 15/04 A3041 RMK AO2 SLP297 T01500039
VFR 13.3°C / 5.6°C variable 3kt >10km - Clear 1029 - KHYA 251156Z VRB03KT 10SM CLR 13/06 A3039 RMK AO2 SLP291 T01330056 10133 20050 51011
VFR 11.1°C / 8.9°C 70º 3kt >10km - Clear 1028 - KHYA 251056Z 07003KT 10SM CLR 11/09 A3038 RMK AO2 SLP287 T01110089
VFR 5.6°C / 4.4°C variable 0kt >10km - Clear 1028 - KHYA 250956Z 00000KT 10SM CLR 06/04 A3037 RMK AO2 SLP286 T00560044
VFR 5°C / 3.9°C variable 0kt >10km - Clear 1028 - KHYA 250856Z AUTO 00000KT 10SM CLR 05/04 A3036 RMK AO2 SLP280 T00500039 53007
VFR 5.6°C / 3.9°C variable 0kt >10km - Clear 1027 - KHYA 250756Z AUTO 00000KT 10SM CLR 06/04 A3035 RMK AO2 SLP276 T00560039

VFR

10°C / 5°C

[Больше]
Ветер variable 0kt
Видимость >10km
Погода -
Облачность Clear
Давление 1027
Изменить -
Необработанный KHYA 260656Z AUTO 00000KT 10SM CLR 10/05 A3035 RMK AO2 SLP279 T01000050

VFR

11.1°C / 6.1°C

[Больше]
Ветер variable 0kt
Видимость >10km
Погода -
Облачность Clear
Давление 1028
Изменить -
Необработанный KHYA 260556Z AUTO 00000KT 10SM CLR 11/06 A3036 RMK AO2 SLP282 T01110061 10122 20111 58001

VFR

11.7°C / 5.6°C

[Больше]
Ветер 200º 5kt
Видимость >10km
Погода -
Облачность Clear
Давление 1028
Изменить -
Необработанный KHYA 260456Z AUTO 20005KT 10SM CLR 12/06 A3037 RMK AO2 SLP286 T01170056 401610050

VFR

11.7°C / 5.6°C

[Больше]
Ветер 200º 5kt
Видимость >10km
Погода -
Облачность Clear
Давление 1028
Изменить -
Необработанный KHYA 260356Z AUTO 20005KT 10SM CLR 12/06 A3037 RMK AO2 SLP285 T01170056

VFR

11.7°C / 5.6°C

[Больше]
Ветер 170º 5kt
Видимость >10km
Погода -
Облачность Clear
Давление 1028
Изменить -
Необработанный KHYA 260256Z AUTO 17005KT 10SM CLR 12/06 A3037 RMK AO2 SLP284 T01170056 50003

VFR

11.7°C / 5.6°C

[Больше]
Ветер 200º 4kt
Видимость >10km
Погода -
Облачность Clear
Давление 1028
Изменить -
Необработанный KHYA 260156Z 20004KT 10SM CLR 12/06 A3038 RMK AO2 SLP288 T01170056

VFR

12.2°C / 6.7°C

[Больше]
Ветер 170º 6kt
Видимость >10km
Погода -
Облачность Clear
Давление 1028
Изменить -
Необработанный KHYA 260056Z 17006KT 10SM CLR 12/07 A3037 RMK AO2 SLP284 T01220067

VFR

12.2°C / 6.1°C

[Больше]
Ветер 180º 5kt
Видимость >10km
Погода -
Облачность Clear
Давление 1028
Изменить -
Необработанный KHYA 252356Z 18005KT 10SM CLR 12/06 A3036 RMK AO2 SLP280 T01220061 10161 20122 56008

VFR

13.3°C / 6.1°C

[Больше]
Ветер 180º 6kt
Видимость >10km
Погода -
Облачность Clear
Давление 1028
Изменить -
Необработанный KHYA 252256Z 18006KT 10SM CLR 13/06 A3036 RMK AO2 SLP283 T01330061

VFR

13.9°C / 6.1°C

[Больше]
Ветер variable 6kt
Видимость >10km
Погода -
Облачность Clear
Давление 1028
Изменить -
Необработанный KHYA 252156Z VRB06KT 10SM CLR 14/06 A3037 RMK AO2 SLP285 T01390061

VFR

14.4°C / 5°C

[Больше]
Ветер 190º 7kt
Видимость >10km
Погода -
Облачность Clear
Давление 1028
Изменить -
Необработанный KHYA 252056Z 19007KT 10SM CLR 14/05 A3038 RMK AO2 SLP289 T01440050 55005

VFR

15°C / 5°C

[Больше]
Ветер 140º 6kt
Видимость >10km
Погода -
Облачность Clear
Давление 1028
Изменить -
Необработанный KHYA 251956Z 14006KT 10SM CLR 15/05 A3038 RMK AO2 SLP288 T01500050

VFR

15°C / 3.9°C

[Больше]
Ветер 180º 7kt
Видимость >10km
Погода -
Облачность Clear
Давление 1029
Изменить -
Необработанный KHYA 251856Z 18007KT 10SM CLR 15/04 A3039 RMK AO2 SLP292 T01500039

VFR

15°C / 3.3°C

[Больше]
Ветер 180º 6kt
Видимость >10km
Погода -
Облачность Clear
Давление 1029
Изменить -
Необработанный KHYA 251756Z 18006KT 10SM CLR 15/03 A3040 RMK AO2 SLP294 T01500033 10161 20139 58002

VFR

15°C / 3.3°C

[Больше]
Ветер variable 6kt
Видимость >10km
Погода -
Облачность Clear
Давление 1029
Изменить -
Необработанный KHYA 251656Z VRB06KT 10SM CLR 15/03 A3040 RMK AO2 SLP296 T01500033

VFR

15°C / 5.6°C

[Больше]
Ветер variable 6kt
Видимость >10km
Погода -
Облачность Clear
Давление 1029
Изменить -
Необработанный KHYA 251556Z VRB06KT 10SM CLR 15/06 A3041 RMK AO2 SLP299 T01500056

VFR

15°C / 3.9°C

[Больше]
Ветер 120º 7kt
Видимость >10km
Погода -
Облачность Clear
Давление 1029
Изменить -
Необработанный KHYA 251456Z 12007KT 10SM CLR 15/04 A3040 RMK AO2 SLP296 T01500039 50005

VFR

14.4°C / 3.3°C

[Больше]
Ветер 130º 8kt
Видимость >10km
Погода -
Облачность Clear
Давление 1029
Изменить -
Необработанный KHYA 251356Z 13008KT 10SM CLR 14/03 A3041 RMK AO2 SLP297 T01440033

VFR

15°C / 3.9°C

[Больше]
Ветер variable 5kt
Видимость >10km
Погода -
Облачность Clear
Давление 1029
Изменить -
Необработанный KHYA 251256Z VRB05KT 10SM CLR 15/04 A3041 RMK AO2 SLP297 T01500039

VFR

13.3°C / 5.6°C

[Больше]
Ветер variable 3kt
Видимость >10km
Погода -
Облачность Clear
Давление 1029
Изменить -
Необработанный KHYA 251156Z VRB03KT 10SM CLR 13/06 A3039 RMK AO2 SLP291 T01330056 10133 20050 51011

VFR

11.1°C / 8.9°C

[Больше]
Ветер 70º 3kt
Видимость >10km
Погода -
Облачность Clear
Давление 1028
Изменить -
Необработанный KHYA 251056Z 07003KT 10SM CLR 11/09 A3038 RMK AO2 SLP287 T01110089

VFR

5.6°C / 4.4°C

[Больше]
Ветер variable 0kt
Видимость >10km
Погода -
Облачность Clear
Давление 1028
Изменить -
Необработанный KHYA 250956Z 00000KT 10SM CLR 06/04 A3037 RMK AO2 SLP286 T00560044

VFR

5°C / 3.9°C

[Больше]
Ветер variable 0kt
Видимость >10km
Погода -
Облачность Clear
Давление 1028
Изменить -
Необработанный KHYA 250856Z AUTO 00000KT 10SM CLR 05/04 A3036 RMK AO2 SLP280 T00500039 53007

VFR

5.6°C / 3.9°C

[Больше]
Ветер variable 0kt
Видимость >10km
Погода -
Облачность Clear
Давление 1027
Изменить -
Необработанный KHYA 250756Z AUTO 00000KT 10SM CLR 06/04 A3035 RMK AO2 SLP276 T00560039

TAF для Barnstable (KHYA)

From till


From till Wind 200º 5kt. Visibility 10km or more. Broken Clouds 22000ft.
From till Wind 160º 9kt. Visibility 10km or more. Scattered Clouds 20000ft.
From till Wind 170º 11kt. Gust 20kt. Visibility 10km or more. Scattered Clouds 12000ft. Broken Clouds 20000ft.
From till Wind 190º 11kt. Gust 19kt. Visibility 10km or more. Broken Clouds 9000ft.
From till Wind 200º 11kt. Gust 21kt. Visibility 10km or more. Broken Clouds 4500ft.
From till Wind 200º 11kt. Gust 21kt. Visibility 10km or more. Broken Clouds 2000ft.

Необработанный: KHYA 260530Z 2606/2706 20005KT P6SM BKN220 FM261200 16009KT P6SM SCT200 FM261600 17011G20KT P6SM SCT120 BKN200 FM270000 19011G19KT P6SM BKN090 FM270400 20011G21KT P6SM BKN045 FM270500 20011G21KT P6SM BKN020

Радарный и сверхкраткосрочный прогноз осадков для Barnstable

Морось
Незначительные
Умеренные
Сильные
Очень Сильные
Град

Индикатор местности находится на Barnstable. Анимация показывает радар осадков за последний час, а также прогноз погоды для 1h. Морось или небольшой снег могут быть невидимы для радара. Интенсивность осадков имеет цветовую кодировку - от светло-голубого до оранжевого.

Текущие спутниковые изображения для Barnstable, США

Указатель местности находится на Barnstable. [Больше]

Спутниковое изображение в реальном времени сочетает в себе видимый свет в дневное время с инфракрасным излучением в ночное время. Ночью изображение получается не темным, так как инфракрасное излучение может обнаружить разницу температур. К сожалению, низкие облака и туман трудно отличить от температуры у поверхности земли и поэтому могут быть почти незаметны ночью. Спутниковые снимки Meteosat для Европы обновляются каждые 5 минут в режиме реального времени.Снимки GOES-16/GOES-17 (Северная и Южная Америка) и Химавари (Азия) обновляются каждые 10 минут.

Обратно к последним данным